AUA25L EDDH-LOWW

Flight info

Callsign AUA25L
Flight time 1h 10m
Altitude 37000
Route RAMAR6G RAMAR Z998 RATMO DCT HDO DCT EVIKU DCT BITSI DCT MIKOV MIKOV8W
Aircraft A320/M-SDE3FGHIRWY/LB1

Departure

Time 2026-05-04 09:46
Airport Hamburg Helmut Schmidt Airport (EDDH)

Arrival

Time 2026-05-04 10:56
Airport Vienna International Airport (LOWW)
Time Latitude Longitude Altitude Speed Heading
2026-05-04 09:19 53.63169 10.00365 51 ft 0 kts 87°
2026-05-04 09:37 53.63168 10.00341 51 ft 4 kts 86°
2026-05-04 09:38 53.63167 10.00299 51 ft 2 kts 86°
2026-05-04 09:38 53.63168 10.00264 51 ft 4 kts 129°
2026-05-04 09:38 53.63187 10.00250 48 ft 3 kts 176°
2026-05-04 09:38 53.63191 10.00249 49 ft 0 kts 176°
2026-05-04 09:40 53.63191 10.00250 49 ft 0 kts 176°
2026-05-04 09:41 53.63167 10.00252 47 ft 4 kts 176°
2026-05-04 09:42 53.62814 9.99973 50 ft 0 kts 210°
2026-05-04 09:43 53.62787 9.99946 50 ft 10 kts 210°
2026-05-04 09:44 53.62729 9.99885 49 ft 9 kts 249°
2026-05-04 09:44 53.62770 9.99826 49 ft 9 kts 334°
2026-05-04 09:44 53.62785 9.99813 46 ft 0 kts 332°
2026-05-04 09:46 53.68047 9.95277 1766 ft 197 kts 330°
2026-05-04 09:46 53.69434 9.94655 2234 ft 215 kts 354°
2026-05-04 09:46 53.70943 9.94665 3018 ft 216 kts 357°
2026-05-04 09:47 53.72483 9.95038 3508 ft 239 kts 18°
2026-05-04 09:47 53.73936 9.96678 3906 ft 267 kts 47°
2026-05-04 09:49 53.80223 10.18010 9447 ft 306 kts 63°
2026-05-04 09:49 53.81134 10.21291 10195 ft 312 kts 69°
2026-05-04 09:49 53.81557 10.24984 10480 ft 333 kts 93°
2026-05-04 09:51 53.77875 10.50041 13852 ft 382 kts 107°
2026-05-04 09:51 53.77207 10.54413 14442 ft 386 kts 107°
2026-05-04 09:51 53.76531 10.58835 15013 ft 391 kts 107°
2026-05-04 09:51 53.75845 10.63298 15600 ft 394 kts 108°
2026-05-04 09:52 53.75148 10.67802 16180 ft 399 kts 108°
2026-05-04 09:52 53.74440 10.72353 16751 ft 402 kts 108°
2026-05-04 09:52 53.73721 10.76947 17326 ft 407 kts 109°
2026-05-04 09:52 53.73003 10.81530 17885 ft 411 kts 109°
2026-05-04 09:53 53.72185 10.86219 18437 ft 412 kts 116°
2026-05-04 09:53 53.70943 10.90555 18923 ft 409 kts 127°
2026-05-04 09:53 53.69267 10.94389 19423 ft 404 kts 138°
2026-05-04 09:53 53.67233 10.97600 19924 ft 399 kts 149°
2026-05-04 09:54 53.64932 11.00176 20447 ft 396 kts 156°
2026-05-04 09:54 53.62581 11.02563 20959 ft 399 kts 156°
2026-05-04 09:54 53.60265 11.04913 21477 ft 402 kts 156°
2026-05-04 09:54 53.57863 11.07353 21972 ft 405 kts 156°
2026-05-04 09:55 53.55444 11.09814 22467 ft 408 kts 156°
2026-05-04 09:55 53.53009 11.12290 22950 ft 410 kts 156°
2026-05-04 09:55 53.50558 11.14772 23415 ft 413 kts 156°
2026-05-04 09:55 53.48089 11.17272 23815 ft 416 kts 156°
2026-05-04 09:56 53.45605 11.19791 24167 ft 418 kts 155°
2026-05-04 09:56 53.43105 11.22328 24532 ft 421 kts 155°
2026-05-04 09:56 53.40594 11.24870 24901 ft 423 kts 155°
2026-05-04 09:56 53.38063 11.27424 25259 ft 425 kts 155°
2026-05-04 09:57 53.35521 11.29983 25605 ft 428 kts 155°
2026-05-04 09:57 53.32967 11.32550 25953 ft 430 kts 155°
2026-05-04 09:57 53.30394 11.35127 26286 ft 432 kts 155°
2026-05-04 09:57 53.27811 11.37729 26603 ft 436 kts 153°
2026-05-04 09:58 53.25371 11.40818 26933 ft 445 kts 143°
2026-05-04 09:58 53.23087 11.44343 27257 ft 448 kts 143°
2026-05-04 09:58 53.20792 11.47890 27585 ft 451 kts 143°
2026-05-04 10:00 53.04427 11.72875 29672 ft 462 kts 143°
2026-05-04 10:00 53.02056 11.76489 29911 ft 463 kts 143°
2026-05-04 10:02 52.87714 12.05791 31868 ft 466 kts 133°
2026-05-04 10:04 52.74042 12.35422 33890 ft 460 kts 134°
2026-05-04 10:04 52.72090 12.39595 34157 ft 457 kts 137°
2026-05-04 10:04 52.69922 12.43348 34383 ft 449 kts 146°
2026-05-04 10:04 52.67483 12.46483 34592 ft 441 kts 152°
2026-05-04 10:05 52.64986 12.49314 34782 ft 442 kts 152°
2026-05-04 10:05 52.62421 12.52226 34969 ft 442 kts 152°
2026-05-04 10:05 52.59921 12.55069 35151 ft 443 kts 152°
2026-05-04 10:05 52.57386 12.57955 35293 ft 443 kts 151°
2026-05-04 10:06 52.54854 12.60839 35493 ft 443 kts 151°
2026-05-04 10:06 52.52318 12.63725 35672 ft 444 kts 151°
2026-05-04 10:06 52.49775 12.66606 35839 ft 444 kts 151°
2026-05-04 10:08 52.34493 12.83840 36812 ft 445 kts 150°
2026-05-04 10:08 52.31941 12.86704 36954 ft 446 kts 150°
2026-05-04 10:08 52.26820 12.92430 36978 ft 446 kts 150°
2026-05-04 10:09 52.21704 12.98139 36984 ft 444 kts 150°
2026-05-04 10:09 52.17466 13.02850 36984 ft 444 kts 150°
2026-05-04 10:10 52.12369 13.08516 36992 ft 443 kts 150°
2026-05-04 10:10 52.07272 13.14168 36992 ft 443 kts 150°
2026-05-04 10:11 52.02170 13.19801 36978 ft 444 kts 150°
2026-05-04 10:11 51.97060 13.25425 36994 ft 444 kts 150°
2026-05-04 10:12 51.91942 13.31036 36990 ft 444 kts 150°
2026-05-04 10:12 51.86825 13.36642 37004 ft 444 kts 150°
2026-05-04 10:13 51.81705 13.42238 37009 ft 444 kts 150°
2026-05-04 10:13 51.76582 13.47815 37011 ft 444 kts 151°
2026-05-04 10:14 51.71463 13.53379 36996 ft 444 kts 150°
2026-05-04 10:16 51.50956 13.75479 37014 ft 444 kts 151°
2026-05-04 10:16 51.45821 13.80975 37002 ft 444 kts 151°
2026-05-04 10:17 51.40682 13.86465 37006 ft 444 kts 151°
2026-05-04 10:19 51.20103 14.08299 37024 ft 444 kts 151°
2026-05-04 10:19 51.14945 14.13725 37019 ft 444 kts 151°
2026-05-04 10:20 51.09822 14.19099 37021 ft 444 kts 151°
2026-05-04 10:20 51.04665 14.24519 37023 ft 444 kts 151°
2026-05-04 10:21 50.99500 14.29915 37013 ft 444 kts 151°
2026-05-04 10:21 50.94288 14.35191 37000 ft 443 kts 156°
2026-05-04 10:22 50.88580 14.38473 36995 ft 434 kts 171°
2026-05-04 10:22 50.85636 14.39560 36997 ft 435 kts 171°
2026-05-04 10:23 50.79741 14.41735 37006 ft 435 kts 171°
2026-05-04 10:25 50.56106 14.50461 37013 ft 437 kts 171°
2026-05-04 10:25 50.50193 14.52675 37008 ft 438 kts 167°
2026-05-04 10:26 50.44646 14.56804 37003 ft 448 kts 148°
2026-05-04 10:26 50.39987 14.63409 37002 ft 453 kts 139°
2026-05-04 10:27 50.35457 14.70289 37004 ft 454 kts 139°
2026-05-04 10:27 50.30908 14.77152 37012 ft 454 kts 139°
2026-05-04 10:28 50.26352 14.84006 37017 ft 455 kts 140°
2026-05-04 10:28 50.21791 14.90846 37017 ft 454 kts 139°
2026-05-04 10:29 50.17231 14.97671 37024 ft 454 kts 139°
2026-05-04 10:29 50.12704 15.04440 37024 ft 454 kts 139°
2026-05-04 10:30 50.08150 15.11240 37026 ft 453 kts 140°
2026-05-04 10:30 50.03588 15.18018 37028 ft 453 kts 140°
2026-05-04 10:31 49.99019 15.24776 37019 ft 454 kts 140°
2026-05-04 10:32 49.82975 15.48394 37009 ft 455 kts 140°
2026-05-04 10:33 49.78384 15.55121 37009 ft 455 kts 140°
2026-05-04 10:33 49.73781 15.61842 37005 ft 455 kts 140°
2026-05-04 10:34 49.69163 15.68548 36914 ft 457 kts 140°
2026-05-04 10:34 49.66843 15.71908 36643 ft 457 kts 140°
2026-05-04 10:34 49.64528 15.75259 36380 ft 457 kts 140°
2026-05-04 10:35 49.62208 15.78616 36120 ft 457 kts 139°
2026-05-04 10:35 49.59890 15.81972 35870 ft 457 kts 139°
2026-05-04 10:35 49.57569 15.85327 35616 ft 458 kts 139°
2026-05-04 10:35 49.55240 15.88687 34958 ft 461 kts 139°
2026-05-04 10:36 49.52889 15.92073 34057 ft 465 kts 139°
2026-05-04 10:36 49.50516 15.95485 33010 ft 469 kts 139°
2026-05-04 10:36 49.48128 15.98914 32055 ft 470 kts 139°
2026-05-04 10:36 49.45738 16.02345 31353 ft 467 kts 139°
2026-05-04 10:37 49.43382 16.05725 30765 ft 461 kts 139°
2026-05-04 10:37 49.41045 16.09072 30146 ft 457 kts 139°
2026-05-04 10:37 49.38730 16.12388 29474 ft 453 kts 139°
2026-05-04 10:37 49.36441 16.15657 28887 ft 447 kts 139°
2026-05-04 10:39 49.21552 16.30514 25583 ft 415 kts 156°
2026-05-04 10:39 49.18969 16.32429 25064 ft 411 kts 156°
2026-05-04 10:39 49.16407 16.34328 24564 ft 407 kts 156°
2026-05-04 10:40 49.13867 16.36205 24067 ft 404 kts 156°
2026-05-04 10:40 49.11341 16.38061 23590 ft 401 kts 156°
2026-05-04 10:40 49.08840 16.39896 23084 ft 397 kts 156°
2026-05-04 10:40 49.06366 16.41715 22612 ft 392 kts 156°
2026-05-04 10:41 49.03927 16.43513 22163 ft 387 kts 156°
2026-05-04 10:41 49.01513 16.45294 21711 ft 384 kts 156°
2026-05-04 10:41 48.99124 16.47053 21253 ft 380 kts 156°
2026-05-04 10:41 48.96787 16.48769 20809 ft 376 kts 156°
2026-05-04 10:42 48.94440 16.50486 20343 ft 373 kts 156°
2026-05-04 10:42 48.92108 16.52184 19886 ft 370 kts 157°
2026-05-04 10:42 48.89790 16.53871 19407 ft 369 kts 157°
2026-05-04 10:42 48.87482 16.55550 18933 ft 367 kts 157°
2026-05-04 10:43 48.85186 16.57219 18452 ft 365 kts 157°
2026-05-04 10:44 48.69106 16.65176 15371 ft 336 kts 169°
2026-05-04 10:45 48.66836 16.65931 14706 ft 333 kts 170°
2026-05-04 10:45 48.64587 16.66672 14075 ft 329 kts 170°
2026-05-04 10:45 48.62337 16.67009 13397 ft 322 kts 186°
2026-05-04 10:45 48.60218 16.66216 13088 ft 304 kts 205°
2026-05-04 10:46 48.58494 16.64580 12819 ft 286 kts 221°
2026-05-04 10:46 48.57038 16.62577 12227 ft 281 kts 223°
2026-05-04 10:46 48.55611 16.60566 11594 ft 279 kts 223°
2026-05-04 10:46 48.54204 16.58570 10977 ft 277 kts 223°
2026-05-04 10:47 48.52802 16.56586 10369 ft 276 kts 222°
2026-05-04 10:47 48.51410 16.54620 9744 ft 274 kts 222°
2026-05-04 10:47 48.50024 16.52666 9133 ft 272 kts 222°
2026-05-04 10:47 48.48647 16.50726 8519 ft 270 kts 223°
2026-05-04 10:49 48.38340 16.46595 5851 ft 232 kts 166°
2026-05-04 10:49 48.36784 16.47261 5539 ft 233 kts 166°
2026-05-04 10:50 48.35229 16.47926 5242 ft 232 kts 166°
2026-05-04 10:51 48.25070 16.52260 3229 ft 189 kts 167°
2026-05-04 10:52 48.23851 16.52779 2988 ft 176 kts 166°
2026-05-04 10:52 48.22717 16.53260 2758 ft 162 kts 166°
2026-05-04 10:52 48.21690 16.53697 2583 ft 144 kts 165°
2026-05-04 10:54 48.15412 16.56360 1306 ft 132 kts 166°
2026-05-04 10:54 48.14517 16.56731 1115 ft 133 kts 165°
2026-05-04 10:56 48.10213 16.58431 610 ft 15 kts 193°
2026-05-04 10:56 48.10130 16.58357 614 ft 14 kts 264°
2026-05-04 10:56 48.10188 16.58293 619 ft 10 kts 346°
2026-05-04 10:57 48.10272 16.58258 612 ft 17 kts 344°
2026-05-04 10:57 48.10383 16.58212 618 ft 16 kts 345°
2026-05-04 10:57 48.10451 16.58184 622 ft 16 kts 344°
2026-05-04 10:57 48.10569 16.58134 610 ft 17 kts 345°
2026-05-04 10:58 48.10679 16.58087 624 ft 16 kts 343°
2026-05-04 10:58 48.10789 16.58042 618 ft 18 kts 345°
2026-05-04 10:58 48.10902 16.57992 624 ft 16 kts 343°
2026-05-04 10:58 48.11012 16.57946 623 ft 17 kts 344°
2026-05-04 10:59 48.11110 16.57863 614 ft 16 kts 301°
2026-05-04 10:59 48.11159 16.57711 621 ft 18 kts 296°
2026-05-04 10:59 48.11211 16.57550 612 ft 17 kts 296°
2026-05-04 10:59 48.11268 16.57377 613 ft 18 kts 296°
2026-05-04 11:00 48.11321 16.57212 621 ft 17 kts 296°
2026-05-04 11:01 48.11627 16.56276 613 ft 11 kts 298°
2026-05-04 11:02 48.11687 16.56262 620 ft 9 kts 28°
2026-05-04 11:02 48.11745 16.56308 614 ft 9 kts 32°
2026-05-04 11:05 48.11652 16.56441 609 ft 0 kts 205°